User: anonymous   Login
Location: Clermont
(50.2608°N, 4.3172°E)
Time: 11:38:33
(UTC+00:00)
Language:

SWARM A - Orbit

View from above orbital plane
View from above orbital plane
View from above satellite
View from above satellite

Ground track
Ground track

The orbit data is extracted from the following two-line orbital elements,

1 39452U 13067B   20304.85332418 +.00001808 +00000-0 +37626-4 0  9998
2 39452 087.3592 081.4081 0002324 103.1403 257.0114 15.44828741390088
Epoch (UTC): 30 October 2020 20:28:47
Eccentricity: 0.0002324
inclination: 87.3592°
perigee height: 430 km
apogee height: 433 km
right ascension of ascending node: 81.4081°
argument of perigee: 103.1403°
revolutions per day: 15.44828741
mean anomaly at epoch: 257.0114°
orbit number at epoch: 39008

The dashed part of the orbit path shows where the satellite is in the earth's shadow,  

DLR